Regional Weather Roundup
Issued by NWS

Home | Current Version | Previous Version | Text Only | Print | Product List | Glossary Off
Versions: 1 2 3 4 5 6 7 8 9 10 11 12 13 14 15 16 17 18 19 20 21 22 23 24 25 26 27 28 29 30 31 32 33 34 35 36 37 38 39 40 41 42 43 44 45 46 47 48 49 50

000
ASUS45 KCYS 242210
RWRWY

WYOMING REGIONAL WEATHER ROUNDUP
NATIONAL WEATHER SERVICE CHEYENNE WY
400 PM MDT SUN MAY 24 2015

NOTE:  "FAIR" INDICATES FEW OR NO CLOUDS BELOW 12,000 FEET
WITH NO SIGNIFICANT WEATHER AND/OR OBSTRUCTIONS TO VISIBILITY.

WYZ001-242300-
YELLOWSTONE NATIONAL PARK

CITY           SKY/WX    TMP DP  RH WIND       PRES   REMARKS
LK YELLOWSTONE   N/A     51  32  48 MISG      30.02S
W YELLOWSTONE  NOT AVBL

$$
WYZ002>013-054>058-071-098>099-242300-
NORTHERN WYOMING

CITY           SKY/WX    TMP DP  RH WIND       PRES   REMARKS
JACKSON        PTSUNNY   52  39  62 N12       29.95S
CODY           CLOUDY    48  45  87 N14       29.99S
GREYBULL       CLOUDY    57  45  64 NW23      29.89S
WORLAND        LGT RAIN  53  49  86 N14       29.90S
SHERIDAN       LGT RAIN  51  49  92 N10       29.95F
BUFFALO        HVY RAIN  48  47  96 N17G26    29.94S FOG
GILLETTE       LGT RAIN  52  49  89 NE12      29.90S
HULETT         RAIN      52  50  93 NE7       29.92F
NEWCASTLE      MOCLDY    59  46  63 NW6       29.87F

$$
WYZ014>020-022>026-101>103-242300-
CENTRAL WYOMING

CITY           SKY/WX    TMP DP  RH WIND       PRES   REMARKS
BIG PINEY      LGT RAIN  49  43  80 S9        29.94R
PINEDALE       LGT RAIN  46  41  81 W3        29.95R
DUBOIS         DRIZZLE   45  37  76 S7        29.98S
LANDER         CLOUDY    48  42  80 NW10      29.95F
RIVERTON       CLOUDY    49  43  80 NW9       29.95F
CASPER         PTSUNNY   56  45  66 N17G24    29.87S
DOUGLAS        PTSUNNY   56  47  71 NW15G21   29.85R THUNDER

$$
WYZ021-027>030-104>119-242300-
SOUTHERN WYOMING

CITY           SKY/WX    TMP DP  RH WIND       PRES   REMARKS
EVANSTON       LGT RAIN  47  40  76 NW7       29.96R
KEMMERER       RAIN      43  39  87 CALM      29.96F
FORT BRIDGER   CLOUDY    46  46 100 S7        30.00S
ROCK SPRINGS   LGT RAIN  47  40  76 VRB3      29.95S
DIXON          CLOUDY    45  38  77 W6        29.95F
RAWLINS        CLOUDY    49  38  65 W8        29.92R
SARATOGA       CLOUDY    43  39  87 N10       29.93S
LARAMIE        CLOUDY    50  38  63 N21       29.89R
CHEYENNE       LGT RAIN  48  40  73 NW12      29.88S
TORRINGTON     FAIR      67  43  41 VRB3      29.78F
PINE BLUFFS    TSTM      52  45  76 SW24      29.86R

$$



USA.gov is the U.S. government's official web portal to all federal, state and local government web resources and services.